This is the latest recevied weather packets stored in our database for station/object WV8BRW. If no packets are shown the sender has not sent any weather packets the latest 1 day(s).
| Time | Temp. | Humidity | Pressure | Rain* | Wind** | Luminosity | Snow |
|---|---|---|---|---|---|---|---|
| 1778103786 | 15° C | 92% | 1010.3 hPa | 0 mm | - | 85 W/m² | - |
| 1778103181 | 15° C | 92% | 1010.2 hPa | 0 mm | - | 108 W/m² | - |
| 1778102574 | 15° C | 92% | 1010.3 hPa | 0 mm | - | 64 W/m² | - |
| 1778101966 | 15° C | 92% | 1010.1 hPa | 0 mm | - | 92 W/m² | - |
| 1778101057 | 14.44° C | 94% | 1010.5 hPa | 0 mm | - | 69 W/m² | - |
| 1778100147 | 15° C | 94% | 1010.6 hPa | 0 mm | - | 69 W/m² | - |
| 1778099234 | 15° C | 94% | 1010.4 hPa | 0 mm | - | 98 W/m² | - |
| 1778098627 | 14.44° C | 93% | 1010.5 hPa | 0 mm | - | 105 W/m² | - |
| 1778098020 | 14.44° C | 93% | 1010.3 hPa | 0 mm | - | 91 W/m² | - |
| 1778097717 | 14.44° C | 92% | 1010.5 hPa | 0 mm | - | 134 W/m² | - |
| 1778096503 | 14.44° C | 92% | 1010.3 hPa | 0 mm | - | 88 W/m² | - |
| 1778095898 | 14.44° C | 91% | 1010.1 hPa | 0 mm | - | 106 W/m² | - |
| 1778094988 | 14.44° C | 93% | 1010 hPa | 0 mm | - | 249 W/m² | - |
| 1778093471 | 13.89° C | 96% | 1010.5 hPa | 0 mm | - | 245 W/m² | - |
| 1778093169 | 13.89° C | 96% | 1010.4 hPa | 0 mm | - | 271 W/m² | - |
| 1778092866 | 13.33° C | 97% | 1010.1 hPa | 0 mm | - | 328 W/m² | - |
| 1778091351 | 12.78° C | 98% | 1010.3 hPa | 0 mm | - | 201 W/m² | - |
| 1778089533 | 12.22° C | 99% | 1010.1 hPa | 0 mm | - | 206 W/m² | - |
| 1778088623 | 12.22° C | 99% | 1010.2 hPa | 0 mm | - | 114 W/m² | - |
| 1778085891 | 11.67° C | 99% | 1010.2 hPa | 0 mm | - | 95 W/m² | - |
| 1778085589 | 11.67° C | 99% | 1010.1 hPa | 0 mm | - | 101 W/m² | - |
| 1778085284 | 11.67° C | 99% | 1010.1 hPa | 0 mm | - | 97 W/m² | - |
| 1778084676 | 11.67° C | 99% | 1010.3 hPa | 0 mm | - | 104 W/m² | - |
| 1778083158 | 11.67° C | 99% | 1010 hPa | 0 mm | - | 105 W/m² | - |
| 1778081737 | 11.67° C | 99% | 1009.5 hPa | 0 mm | - | 128 W/m² | - |
* Rain latest hour (hover to see other rain measurements)
** Current wind speed in m/s (hover to see current wind gust speed)